CW4666 Weather Reports


time (UTC)temp
C
wind
direction
speed
KPH
gust
KPH
rain 1hr
cm
rain 24hr
cm
rain mn
cm
humidity
%
barometer
mb
20181023100611 18 97 16.1 41.8 0.00 0.00 0.00 57 1021.2
20181023100113 18 96 19.3 41.8 0.00 0.00 0.00 58 1021.1
20181023090119 16 85 20.9 33.8 0.00 0.00 0.00 61 1020.9
20181023070611 15 85 14.5 24.1 0.00 0.00 0.00 59 1020.1
20181023070113 15 82 16.1 32.2 0.00 0.00 0.00 59 1020.0
20181023060613 15 76 9.7 19.3 0.00 0.00 0.00 59 1019.6
20181023060116 15 83 14.5 27.4 0.00 0.00 0.00 59 1019.5
20181023050613 16 77 12.9 32.2 0.00 0.00 0.00 56 1019.1
20181023050112 16 83 16.1 32.2 0.00 0.00 0.00 56 1019.1
20181023040611 16 75 14.5 24.1 0.00 0.00 0.00 55 1018.9
20181023040114 16 82 14.5 32.2 0.00 0.00 0.00 55 1018.8
20181023030117 16 90 19.3 29.0 0.00 0.00 0.00 56 1018.8
20181023020616 17 74 11.3 24.1 0.00 0.00 0.00 60 1018.7
20181023010612 17 84 14.5 27.4 0.00 0.00 0.00 62 1018.4
20181023010116 17 79 16.1 25.7 0.00 0.00 0.00 63 1018.5
20181023000616 18 81 11.3 19.3 0.00 0.00 0.00 67 1018.8
20181023000116 18 80 8.0 19.3 0.00 0.00 0.00 67 1018.7
20181022230613 18 82 4.8 12.9 0.00 0.00 0.00 65 1018.8
20181022230113 18 62 1.6 11.3 0.00 0.00 0.00 69 1019.0
20181022220610 19 31 0.0 3.2 0.00 0.00 0.00 65 1019.0
20181022220112 20 37 1.6 11.3 0.00 0.00 0.00 62 1018.8
20181022210613 20 13 0.0 1.6 0.00 0.00 0.00 69 1018.8
20181022210112 20 12 0.0 19.3 0.00 0.00 0.00 71 1018.7
20181022200610 19 4 11.3 19.3 0.00 0.00 0.00 72 1018.2
20181022190610 19 9 14.5 24.1 0.00 0.00 0.00 72 1018.1
20181022190115 19 7 14.5 24.1 0.00 0.00 0.00 72 1018.1
20181022180610 20 4 8.0 19.3 0.00 0.00 0.00 72 1018.0
20181022180112 20 0 9.7 25.7 0.00 0.00 0.00 72 1018.0
20181022170610 19 355 9.7 19.3 0.00 0.00 0.00 76 1017.9
20181022170112 19 352 11.3 20.9 0.00 0.00 0.00 76 1017.8
20181022160111 21 334 1.6 16.1 0.00 0.00 0.00 70 1017.9
20181022150612 22 340 0.0 4.8 0.00 0.00 0.00 66 1017.8
20181022140610 22 337 3.2 11.3 0.00 0.00 0.00 66 1018.2
20181022140117 22 311 0.0 19.3 0.00 0.00 0.00 67 1018.2
20181022130611 24 324 3.2 16.1 0.00 0.00 0.00 61 1018.5
20181022130113 24 315 0.0 14.5 0.00 0.00 0.00 64 1018.5
20181022120610 23 58 8.0 16.1 0.00 0.00 0.00 64 1019.1
20181022120118 23 5 3.2 16.1 0.00 0.00 0.00 65 1019.2
20181022110615 22 34 4.8 16.1 0.00 0.00 0.00 70 1019.4